Theta_e
290 290 290 290 290 290 291 291 291 291 291 292 292 293 293 294 294 294 294 294 294 294 294 294 294 294 294 294 293 293 293 293 292 292 291 291 290 290 290 290 290 289 289 289 289 288 288 288 288 288 288 288 288 288 288 289 289 289 289 289 289 289 289 290 291 291 287 286 286 285 285 285 284 284 283 283 283 283 282 282 281 281 281 281 282
289 289 289 289 289 289 289 290 290 291 291 291 291 291 292 292 293 293 293 293 293 293 293 293 293 293 293 293 293 293 293 293 292 291 291 291 290 290 290 289 289 289 288 288 288 288 288 287 287 287 287 287 287 288 288 288 288 288 288 288 288 288 288 288 289 290 287 284 284 284 283 283 283 283 283 283 283 283 282 281 281 281 281 281 281
289 289 289 289 289 289 288 288 289 289 290 290 290 291 291 291 291 292 292 292 292 292 293 293 293 293 293 293 293 293 293 292 292 292 291 290 290 290 290 289 289 289 288 288 288 288 287 287 287 287 287 287 287 287 287 287 288 288 287 288 287 287 287 287 288 289 288 284 283 283 282 283 282 282 283 283 282 282 281 281 280 281 281 281 281
288 288 289 289 288 288 288 287 288 288 288 289 289 290 291 291 291 291 291 292 292 292 292 292 292 292 292 292 292 292 292 292 292 292 291 291 290 290 290 289 289 289 289 288 288 288 287 287 287 287 286 286 286 286 287 287 287 287 287 287 287 287 287 286 287 288 288 285 283 283 282 282 282 282 282 282 282 281 280 280 280 280 281 281 281
287 288 288 288 288 287 287 287 287 287 287 287 287 288 289 290 291 291 290 290 291 291 292 292 291 291 291 291 291 292 292 292 292 291 291 291 291 290 290 289 289 289 289 288 288 288 288 287 287 287 286 286 286 286 286 286 287 287 287 287 286 286 286 286 286 286 286 285 283 282 282 282 281 281 281 281 280 280 279 279 280 280 281 281 281
287 287 287 288 287 287 286 286 286 286 286 286 286 287 287 288 289 290 290 290 290 290 291 291 291 291 291 291 291 291 291 291 291 291 291 291 291 290 290 289 289 288 288 288 288 288 288 288 288 287 287 286 286 286 286 286 286 286 286 286 286 286 285 285 285 285 285 285 284 282 281 281 281 280 280 280 280 280 280 280 279 280 280 280 281
287 287 287 288 288 287 286 286 286 286 286 286 286 286 286 286 287 288 289 290 290 290 290 290 290 290 291 291 291 291 291 291 290 290 290 290 290 290 289 289 288 288 288 288 287 287 287 287 287 286 286 286 287 286 286 286 286 286 286 286 285 285 284 284 284 284 284 284 283 282 281 280 280 280 280 279 279 280 281 281 281 281 281 281 281
287 287 287 288 288 287 286 285 285 285 285 285 285 285 285 286 286 286 287 288 289 289 289 289 290 290 290 290 290 290 290 290 290 290 290 289 289 289 289 289 288 288 287 287 287 287 286 286 286 286 286 286 286 286 286 286 285 285 285 285 285 285 284 284 283 283 283 283 283 282 281 280 280 280 280 279 279 280 281 281 283 283 282 281 281
287 288 287 288 288 287 286 286 285 285 285 285 285 285 285 285 285 286 286 286 287 288 289 289 289 289 290 290 290 290 290 290 290 290 289 289 289 289 288 288 288 288 287 287 286 286 286 286 286 285 286 286 286 286 286 286 286 285 285 285 284 284 284 283 283 282 282 283 282 282 281 281 280 280 280 280 280 281 281 280 281 282 282 281 281
287 288 287 287 287 287 287 286 285 284 284 284 284 284 284 284 285 285 285 285 286 286 287 288 288 289 289 289 289 289 289 289 289 289 289 289 289 289 288 288 288 287 287 287 286 286 286 286 286 285 285 285 285 285 285 285 285 286 286 286 285 284 283 283 283 282 282 283 282 282 281 281 281 281 281 281 281 281 281 281 281 282 281 281 281
287 287 287 287 287 287 287 287 286 285 284 284 284 284 284 284 284 284 284 284 285 285 285 286 287 288 288 288 289 289 289 289 289 289 289 289 289 289 288 288 288 287 287 287 287 286 286 286 285 285 285 284 284 284 284 284 284 284 285 286 286 286 285 284 283 282 282 282 282 282 282 282 281 281 281 281 281 281 281 281 282 282 281 282 283
286 286 286 286 286 287 287 286 286 285 285 284 284 284 284 284 284 284 284 284 284 284 285 285 285 286 287 288 288 288 288 288 289 288 288 288 288 288 288 288 288 287 287 287 287 286 286 286 285 285 284 284 284 284 283 283 283 283 284 284 285 285 286 286 285 284 283 282 282 281 282 282 282 281 281 281 281 281 281 281 281 281 281 281 282
286 285 285 285 285 286 286 286 285 285 285 284 283 283 283 284 284 284 284 283 283 283 284 284 285 285 286 287 287 288 288 288 288 288 288 288 288 288 288 288 288 287 287 287 287 287 286 286 285 284 284 284 284 283 283 283 283 283 283 283 283 283 284 285 285 285 285 284 283 282 281 282 282 281 281 281 281 281 281 281 281 280 281 281 281
285 285 284 284 284 284 285 285 284 284 284 284 283 283 283 284 284 284 284 284 283 283 283 283 284 284 285 285 286 287 287 288 288 288 287 288 288 288 288 288 288 288 287 287 287 287 286 286 285 285 284 284 283 283 282 282 282 282 282 282 282 282 282 282 283 284 284 284 284 283 283 282 282 281 281 281 281 281 281 281 280 280 280 280 280
285 285 284 284 283 283 283 283 283 283 283 283 283 283 283 284 284 284 285 284 284 284 284 284 283 284 284 284 285 286 286 287 287 287 287 287 287 288 288 288 288 288 287 287 287 286 286 286 285 285 284 284 283 283 282 282 282 282 282 282 282 281 282 282 282 282 282 282 283 283 283 282 281 281 281 280 280 281 281 280 280 279 279 279 279
285 284 284 284 283 283 283 283 283 282 282 281 281 281 282 283 283 284 284 284 284 284 284 284 284 284 283 284 284 285 285 285 286 287 287 287 287 288 288 288 288 288 287 287 287 286 286 285 285 285 284 283 283 283 282 282 282 282 282 282 282 281 281 281 281 281 281 282 282 282 282 282 281 281 280 280 280 280 280 279 279 279 279 278 278
284 284 284 284 283 283 283 282 282 282 281 281 280 280 281 282 282 283 283 283 283 283 283 283 283 283 283 283 283 284 284 284 285 286 287 287 287 288 288 288 288 288 288 287 287 286 286 285 285 284 284 283 283 282 282 282 282 282 282 282 281 281 280 280 280 280 280 280 280 280 280 280 280 280 280 280 279 279 279 278 278 278 278 278 278
284 284 283 283 283 283 282 282 281 281 280 280 279 279 280 281 281 281 281 282 282 282 282 282 282 282 282 282 283 283 283 283 284 285 286 286 287 287 287 288 288 288 288 288 287 286 286 285 285 284 283 283 283 282 282 282 282 282 282 281 281 280 280 280 280 280 280 279 279 279 279 279 279 279 279 279 279 278 278 278 277 277 277 277 278
283 283 283 282 282 282 281 281 280 280 279 279 278 278 278 279 279 279 280 281 281 282 283 283 282 282 282 282 282 282 282 283 283 284 284 285 286 286 287 287 288 288 288 288 287 286 286 285 285 284 283 283 282 282 282 282 282 281 281 281 281 280 280 279 279 279 279 279 278 278 279 279 279 279 279 279 279 278 278 278 278 277 277 277 277
282 281 281 281 281 280 280 279 279 278 278 277 277 277 277 277 278 278 278 279 279 280 281 281 281 281 281 281 281 282 282 282 283 283 283 284 285 286 286 287 287 288 288 288 287 286 285 285 284 284 283 282 282 282 282 283 282 281 281 281 281 280 280 279 279 279 280 279 278 278 279 279 279 279 279 279 279 279 278 277 278 277 277 276 275
280 279 279 279 279 278 278 278 277 277 276 276 276 276 276 276 276 276 276 276 277 278 278 279 280 280 281 281 281 281 281 282 282 282 283 283 284 285 286 286 287 287 287 287 287 286 285 284 283 283 282 282 281 282 282 283 282 281 281 281 281 280 280 279 279 279 280 279 279 279 279 279 279 279 279 279 279 278 277 277 277 277 276 275 274
277 277 277 277 276 276 276 276 275 275 275 274 274 274 274 274 274 274 274 275 275 275 276 277 279 280 281 281 281 281 281 281 282 282 282 282 283 284 285 286 286 287 287 287 287 286 285 284 283 282 282 282 282 281 282 283 283 282 281 281 281 280 280 280 279 279 280 280 280 279 279 279 279 278 278 278 277 277 277 277 277 276 275 274 273
275 275 274 274 274 274 274 274 274 273 273 273 273 273 272 272 272 273 273 273 274 275 276 277 279 280 281 281 281 281 281 281 281 281 282 282 282 283 284 285 286 286 287 287 287 286 285 284 283 282 282 282 282 282 282 283 283 282 281 281 281 281 280 280 279 280 280 280 279 279 279 278 278 277 276 276 277 277 277 276 276 275 274 272 272
272 271 271 271 272 272 272 272 272 272 271 271 271 271 271 271 271 271 272 273 274 274 275 277 278 279 280 281 281 282 281 281 281 281 281 282 282 282 283 284 285 286 286 286 286 286 285 284 283 282 281 281 282 282 282 282 283 283 282 281 281 281 280 279 279 279 279 279 279 278 278 277 276 276 276 276 276 276 276 275 274 273 272 271 271
268 268 268 268 269 269 269 269 270 270 270 270 270 270 270 270 270 270 271 272 273 274 275 276 277 279 280 281 281 282 282 282 281 281 281 281 281 281 282 283 284 285 286 286 286 286 285 284 283 282 281 281 282 282 282 282 283 283 283 282 281 281 280 279 279 279 279 278 278 277 276 276 276 276 275 275 275 274 274 273 272 271 270 270 270
265 265 265 265 266 266 267 267 267 267 268 268 268 268 268 269 269 269 270 271 272 273 274 275 276 278 279 280 281 281 282 282 281 281 281 281 281 281 281 282 283 284 285 285 286 286 285 284 283 282 281 281 281 282 282 282 282 283 283 282 281 281 280 278 278 278 278 277 277 276 276 276 275 275 274 274 274 273 273 271 270 269 269 269 269
262 263 263 263 263 264 264 265 265 266 266 266 267 267 267 268 268 269 269 270 271 272 273 274 276 277 278 280 280 281 281 282 282 281 280 281 281 280 280 281 282 283 284 284 285 285 285 284 283 282 281 281 281 281 282 282 282 283 283 283 281 280 279 278 278 278 277 277 277 276 275 275 274 273 273 273 273 271 271 270 269 268 268 268 268
261 261 261 262 262 262 263 263 264 264 265 265 266 266 266 267 267 268 268 269 270 271 272 274 275 276 277 278 279 280 280 281 282 281 281 280 280 280 280 280 280 281 282 283 284 285 284 283 282 281 281 281 281 281 282 282 282 282 283 282 281 280 279 278 278 277 277 277 276 275 274 273 272 272 272 272 271 270 269 269 269 268 268 267 268
261 261 261 261 261 262 262 262 263 263 263 264 264 265 265 265 266 267 267 268 269 270 271 272 273 274 275 276 277 279 279 280 281 281 281 281 280 280 280 280 280 280 281 282 283 284 283 282 281 281 280 280 281 281 281 282 282 282 282 282 280 279 277 277 277 276 276 275 274 273 272 272 272 271 271 270 269 269 269 269 268 267 267 267 267
260 261 261 261 261 261 261 262 262 262 262 263 263 263 264 264 265 266 266 267 268 269 270 271 272 273 274 274 276 277 278 279 280 280 281 281 281 281 281 280 280 280 281 281 283 283 282 281 281 280 280 280 281 281 281 282 282 282 282 281 279 278 277 277 276 275 275 274 273 272 271 271 270 270 270 269 268 267 268 268 267 267 267 267 267
260 260 261 261 261 261 261 261 261 262 262 262 262 263 263 263 264 265 266 266 267 268 269 270 271 272 272 273 274 275 276 277 278 279 280 281 281 282 282 281 281 281 281 282 283 283 282 281 280 280 280 280 281 281 281 281 281 280 280 279 278 277 276 276 275 274 274 273 272 271 271 271 270 269 268 268 267 267 267 267 267 267 267 267 268
260 260 260 260 260 260 261 261 261 261 262 262 262 262 263 263 263 264 265 265 266 267 268 269 270 271 272 273 273 274 275 275 276 277 278 280 281 282 282 282 282 282 282 282 283 282 281 281 280 280 280 280 280 281 281 281 280 279 278 277 276 276 276 275 274 274 273 271 271 271 270 270 269 268 268 267 267 266 266 266 266 266 266 267 267
259 259 259 260 260 260 260 261 261 261 261 262 262 262 263 263 263 264 264 265 265 266 267 268 269 271 272 273 274 275 275 276 277 277 278 279 281 282 283 283 283 283 283 283 283 282 281 281 280 280 280 280 280 280 280 280 279 278 277 276 275 275 275 274 273 272 272 271 271 271 270 269 269 268 268 268 267 267 266 266 266 266 266 267 267
258 259 259 259 259 260 260 260 261 261 261 262 262 262 263 263 263 264 264 264 265 265 266 267 268 270 271 272 273 274 276 277 278 278 279 280 281 282 283 283 283 283 283 283 283 283 281 280 280 280 280 280 280 280 279 279 278 277 276 275 274 274 273 271 271 271 270 270 271 270 269 269 269 269 268 267 267 267 266 266 267 266 266 267 267
258 258 259 259 259 259 260 260 260 261 261 262 262 262 263 263 263 263 263 264 264 265 265 266 267 268 269 270 271 272 274 276 277 278 279 279 281 282 283 283 283 283 283 283 283 283 281 280 280 280 280 279 279 279 278 278 276 275 275 273 272 271 270 270 270 270 270 270 270 269 268 268 268 268 267 267 266 266 266 266 266 266 266 267 267
258 258 259 259 259 259 260 260 260 260 261 261 261 262 262 262 262 263 263 264 264 265 266 266 267 268 269 270 271 272 273 274 275 277 278 279 280 282 283 283 283 283 283 283 283 283 281 280 280 280 280 279 278 278 278 277 275 274 273 272 270 269 269 269 269 269 269 269 269 269 268 268 268 268 267 267 266 266 266 266 266 266 266 266 266
258 258 259 259 259 259 259 260 260 260 260 261 261 261 262 262 263 263 264 264 265 266 267 267 268 269 269 270 271 272 273 274 275 277 278 279 280 281 283 283 283 283 283 283 283 283 282 280 280 280 280 279 278 277 277 276 274 273 272 270 269 269 269 269 269 269 269 269 268 268 268 268 268 268 267 267 266 266 266 266 266 265 266 266 266
258 258 259 259 259 259 260 260 260 261 261 261 261 262 262 262 263 263 264 264 265 265 266 267 268 269 270 271 271 272 273 274 275 276 277 278 279 281 282 283 283 282 282 282 283 282 282 281 280 280 279 278 277 276 276 274 273 272 271 270 269 269 268 268 268 268 268 268 267 267 267 267 267 267 267 266 266 266 266 265 265 266 266 266 266
259 259 259 260 260 260 261 261 261 261 261 261 262 262 262 262 263 263 264 264 265 266 266 267 268 268 270 271 272 272 273 274 275 276 277 278 279 281 282 283 282 282 282 282 282 282 281 281 280 279 278 277 276 275 274 273 272 271 270 269 268 268 267 267 267 267 268 268 267 267 267 267 266 266 267 267 267 266 266 265 265 266 266 266 266
259 259 260 260 260 261 261 261 261 261 261 262 262 262 262 263 263 264 264 265 265 266 266 267 268 269 270 271 272 273 274 275 276 276 277 278 280 281 282 282 282 282 282 282 281 281 281 280 278 277 276 276 275 275 273 272 271 270 269 268 268 267 267 267 268 268 268 268 267 267 266 266 266 267 267 267 267 267 266 265 265 266 266 266 266
259 260 260 260 261 261 261 261 261 261 261 262 262 262 262 262 263 263 264 264 264 265 266 266 267 268 269 270 272 274 275 276 276 277 277 278 279 281 282 282 282 282 281 281 280 280 279 278 276 275 274 274 274 274 272 270 270 269 268 268 268 267 266 267 268 268 268 268 267 267 266 267 267 267 266 266 267 266 266 265 265 265 266 266 266
259 260 260 261 261 262 262 262 262 262 262 262 262 262 262 262 262 263 263 264 264 265 266 266 267 267 268 270 272 274 276 276 277 277 278 278 279 280 281 281 281 281 279 278 278 278 276 275 274 273 273 273 273 272 271 269 269 269 268 268 268 267 266 266 267 268 268 268 267 267 267 267 267 267 267 267 266 266 266 265 265 265 265 265 266
259 260 261 261 262 262 263 263 263 262 262 262 262 262 262 263 263 263 264 264 264 265 266 267 268 269 269 271 273 275 276 276 276 277 278 278 279 279 279 279 279 278 277 276 276 275 274 273 273 273 273 273 272 271 271 270 269 268 268 268 267 266 266 266 267 267 268 267 267 267 267 267 267 267 266 266 266 266 266 265 265 265 265 265 266
260 261 261 262 262 263 263 264 264 264 263 263 263 263 263 263 263 264 264 264 265 266 267 267 268 270 271 273 274 275 275 276 276 277 277 278 277 277 276 276 277 277 276 275 274 273 273 273 273 272 272 271 270 270 270 270 269 269 269 268 267 266 267 268 268 268 268 268 267 267 267 266 266 266 266 266 266 266 266 266 265 265 265 265 266
260 261 261 262 262 263 263 264 264 265 265 264 264 264 264 264 264 264 265 265 266 266 267 268 269 271 273 274 274 275 275 275 275 275 275 275 275 274 274 274 274 275 274 274 273 272 272 272 272 271 270 269 268 269 269 269 268 269 270 270 269 269 269 269 269 269 268 268 267 267 267 266 266 266 266 267 267 266 266 266 266 265 265 266 266
260 261 261 262 262 263 263 263 264 265 265 265 265 265 265 265 265 265 266 266 267 268 269 270 271 272 273 273 272 272 272 272 272 272 271 271 271 272 272 272 272 272 272 272 271 271 271 271 271 270 269 268 268 268 269 268 267 268 269 271 271 270 270 270 269 268 268 268 268 267 267 267 267 267 267 267 267 266 266 266 266 265 265 266 266
260 260 261 261 262 262 262 263 263 264 265 265 266 266 266 266 266 267 267 268 268 269 270 270 270 270 270 269 269 269 269 269 269 268 268 268 268 269 269 270 270 270 270 270 270 270 269 269 269 269 268 268 268 268 268 268 268 268 269 270 270 270 269 269 268 268 268 268 268 267 267 267 267 267 267 267 267 266 266 266 266 265 265 266 266
259 259 260 261 261 261 261 262 262 263 263 264 265 266 266 266 266 267 267 267 267 268 268 268 267 267 266 266 265 266 266 266 266 266 266 266 266 266 267 267 268 268 268 267 267 267 267 268 268 269 269 269 268 268 268 268 268 269 269 269 269 269 268 268 268 267 267 267 267 267 267 267 267 267 267 267 266 266 266 266 266 265 265 265 266
258 259 259 260 260 260 261 261 261 261 262 262 263 264 264 265 265 265 265 265 265 265 265 265 265 264 264 263 263 263 263 264 264 264 264 264 265 265 265 266 266 266 266 266 266 266 267 267 268 269 269 268 268 268 268 268 268 268 267 267 267 267 267 267 267 267 266 266 266 266 266 266 267 267 267 267 266 266 266 266 266 265 265 265 265
257 257 258 259 259 259 260 260 260 260 261 261 262 262 262 263 263 263 264 264 264 264 264 264 263 263 262 262 261 261 261 261 262 262 263 263 263 264 264 265 265 265 265 265 265 266 266 267 268 268 268 268 268 267 267 267 267 267 267 267 266 266 266 266 266 266 266 266 266 266 266 266 267 266 266 266 266 266 266 266 266 265 265 265 265
256 257 257 257 258 258 259 259 259 259 260 260 261 261 261 262 262 262 262 262 263 263 263 262 262 262 261 261 260 260 260 260 261 261 261 262 262 263 263 264 265 265 265 265 265 266 266 267 267 267 267 267 267 267 266 266 266 266 266 266 266 266 266 266 265 265 266 265 265 266 266 266 266 266 266 266 266 266 266 266 266 265 265 265 265
Wind_Speed
26 27 26 26 28 30 31 31 28 26 22 18 15 16 16 16 18 21 24 25 27 28 29 30 31 33 34 35 36 37 38 39 41 42 43 44 45 45 45 44 47 48 46 46 48 49 48 48 49 49 48 45 44 43 43 42 41 39 37 36 35 35 31 21 10 5 11 16 18 23 28 29 30 31 30 29 27 24 22 22 20 19 19 18 16
23 26 25 24 25 27 29 30 30 30 27 22 18 17 17 17 18 20 22 24 26 27 28 29 31 32 34 35 36 37 38 39 40 41 42 42 42 44 44 43 44 45 43 44 46 47 47 47 47 48 47 46 45 44 44 44 42 41 40 38 36 37 35 27 15 6 9 16 19 21 25 27 28 29 31 30 27 25 25 23 22 21 21 20 18
21 23 23 22 22 22 24 26 27 28 29 27 25 23 20 18 17 17 19 20 22 24 26 27 29 30 32 34 36 37 38 38 39 40 42 42 42 44 46 45 45 45 45 46 46 46 47 47 47 47 47 46 46 46 45 45 44 43 42 41 39 38 38 34 23 11 10 16 19 21 25 27 27 27 29 30 27 25 25 24 23 22 22 21 18
23 22 19 18 19 20 22 24 25 27 28 28 28 28 26 23 19 17 17 18 19 21 22 24 26 27 29 32 34 36 38 39 40 41 43 44 44 45 46 47 48 48 49 50 49 48 49 50 51 49 47 46 47 48 46 46 46 45 44 43 41 39 38 37 31 19 13 15 19 22 25 28 28 27 27 29 27 26 24 23 22 23 22 21 18
22 21 19 19 21 24 26 27 28 28 28 27 28 28 27 26 24 20 17 17 19 20 20 21 23 24 26 29 32 34 36 38 40 42 44 45 45 46 45 46 48 49 51 51 50 50 51 54 55 52 49 49 50 50 50 48 47 46 45 44 43 40 37 37 35 27 18 17 20 21 20 22 25 25 26 26 23 23 23 22 22 22 21 20 17
20 20 20 21 22 24 26 27 28 28 27 27 27 27 26 26 25 24 21 18 17 18 19 20 23 25 27 29 32 33 35 37 39 41 43 44 46 47 46 46 47 48 51 52 51 50 52 56 56 53 51 54 55 54 52 51 50 49 48 46 44 41 38 35 35 32 24 19 20 21 19 19 20 21 26 26 20 16 17 18 20 20 19 17 16
19 19 19 17 17 19 22 23 23 24 24 25 26 27 27 27 26 25 23 21 19 17 18 20 23 25 28 30 32 33 35 37 39 40 41 42 44 46 46 46 46 47 49 51 50 50 52 54 55 53 53 57 59 58 54 52 52 52 51 49 45 41 39 36 34 33 27 19 18 20 21 21 19 17 21 26 22 16 15 14 14 16 16 15 13
17 16 16 14 13 16 19 21 22 22 23 24 25 26 27 27 27 26 25 23 21 19 17 17 19 21 25 28 31 33 34 36 37 38 39 41 42 43 44 45 45 45 45 47 49 50 50 51 54 55 56 58 59 59 57 55 54 52 51 49 46 43 40 37 34 33 28 20 17 17 17 18 19 16 16 20 20 18 19 18 14 13 13 13 13
17 14 14 13 13 15 17 20 22 23 24 25 25 26 27 27 27 27 26 25 24 23 20 18 17 17 20 23 27 30 32 34 34 34 36 38 39 41 43 45 45 44 43 44 46 49 50 49 52 55 56 56 56 56 56 56 56 55 54 51 48 45 42 38 35 32 27 19 16 16 15 15 18 18 18 21 21 18 19 20 15 12 11 11 12
18 16 15 15 15 16 17 17 20 23 24 24 25 26 27 27 27 26 26 26 26 24 24 23 21 19 18 19 23 26 30 33 33 32 34 35 36 39 41 43 44 43 43 43 43 47 50 49 50 51 51 52 53 53 53 54 56 57 57 56 53 49 45 41 38 36 31 24 21 20 16 15 20 22 21 22 22 19 17 18 15 11 10 8 9
19 17 17 16 17 17 16 17 19 21 23 24 25 26 27 27 27 26 26 26 26 25 25 24 23 22 19 19 20 22 27 30 30 32 34 35 35 37 39 40 41 42 43 43 43 45 47 49 49 48 47 49 51 52 52 53 54 55 56 57 57 55 52 47 44 41 37 33 31 29 22 17 21 23 21 20 21 19 18 17 14 11 9 6 5
22 21 20 19 18 17 16 16 18 20 22 23 25 26 26 27 27 27 27 27 27 27 26 25 24 23 22 21 21 21 23 26 27 30 32 34 35 37 37 37 38 40 42 43 44 43 44 47 48 47 48 48 47 49 51 51 52 53 52 52 54 56 56 55 52 48 45 40 37 35 31 24 23 24 24 23 22 19 17 16 14 12 10 8 6
25 26 28 27 24 20 17 18 20 19 19 23 26 27 27 27 27 27 28 29 29 29 29 28 27 25 23 22 23 22 23 23 24 27 30 32 34 35 36 37 37 38 41 43 45 44 44 44 43 44 47 47 44 46 49 50 50 51 51 49 49 51 53 54 54 54 54 51 46 43 41 36 31 30 31 30 26 21 18 16 15 13 12 10 9
25 26 29 30 28 25 24 24 25 23 21 21 23 24 25 26 26 26 26 27 29 31 31 31 30 29 26 25 24 24 24 24 23 24 27 30 32 33 36 37 38 39 41 43 45 45 45 44 43 43 44 44 45 45 46 47 47 46 46 47 48 49 50 50 50 50 50 51 50 48 45 41 37 34 34 32 29 26 22 19 17 15 13 12 10
25 25 27 29 30 28 28 28 29 29 27 24 23 23 23 24 24 23 21 22 24 26 27 29 31 30 29 28 28 28 28 26 24 23 25 27 29 31 33 36 40 42 43 44 44 45 45 45 45 44 43 43 45 46 46 46 44 42 42 44 46 49 51 52 51 50 47 47 47 46 43 40 37 34 32 32 30 27 24 21 18 15 13 10 9
23 24 25 27 28 27 28 29 31 33 32 30 30 28 24 24 24 22 21 22 22 22 24 27 28 29 30 30 30 31 32 29 25 23 23 24 26 28 30 33 37 42 44 44 44 44 45 44 44 44 44 43 44 46 47 46 42 40 41 42 42 45 49 52 52 51 50 47 45 42 39 37 34 32 30 30 28 25 21 18 17 16 14 10 10
21 21 22 22 23 23 24 27 30 33 34 34 35 33 27 25 24 22 21 23 23 25 29 29 29 31 33 32 30 32 34 33 28 25 24 22 22 25 28 30 32 38 42 44 44 43 44 44 43 43 44 45 44 44 45 44 41 40 40 38 37 40 44 46 46 46 46 45 42 40 37 34 31 29 27 27 27 27 23 19 18 19 15 9 10
21 22 22 21 21 21 22 25 29 31 33 34 36 35 31 29 27 24 23 24 25 28 29 28 31 35 35 33 32 33 35 36 32 28 26 23 21 24 26 27 29 33 37 41 43 43 43 43 42 42 43 44 43 42 43 43 42 41 40 37 35 37 40 40 39 37 35 35 36 35 32 30 28 26 25 25 26 27 26 22 22 21 16 12 11
22 23 23 23 22 22 24 28 29 29 31 32 32 32 31 31 30 27 24 24 25 27 25 24 30 35 36 36 35 35 37 39 36 32 30 26 22 24 25 25 27 30 32 35 38 39 41 42 41 42 43 43 43 42 42 43 43 42 40 36 35 39 40 38 37 34 30 30 31 31 30 29 27 26 25 24 24 25 25 24 24 23 18 14 12
23 23 24 24 23 25 28 30 29 29 31 31 31 30 29 28 27 27 27 26 26 26 26 26 30 35 39 39 37 36 38 40 39 34 32 29 25 24 25 25 28 29 30 31 32 34 38 40 41 43 42 41 42 42 41 42 44 43 41 38 39 41 37 34 36 36 33 32 34 34 32 30 28 27 25 25 25 25 24 24 26 26 23 16 12
25 24 25 26 27 30 32 32 32 32 31 31 30 30 28 27 27 27 28 28 28 29 31 31 31 34 38 40 39 38 38 40 40 38 34 32 29 27 27 29 30 30 30 31 31 32 36 37 38 40 40 38 39 40 40 41 43 43 43 43 43 40 35 35 37 37 35 35 35 33 31 29 29 29 27 27 29 28 25 25 27 28 25 20 14
28 27 28 30 32 33 33 33 33 33 33 32 30 30 30 29 29 29 28 28 31 34 35 33 30 29 33 36 37 39 41 40 41 40 38 35 33 30 30 33 33 30 29 31 31 32 35 37 38 39 39 36 36 38 40 40 41 42 45 46 43 38 37 38 36 35 36 35 30 28 30 33 34 34 31 30 31 30 28 27 27 24 23 22 18
30 30 32 34 35 35 34 34 35 34 34 33 30 30 32 30 29 29 28 28 30 31 32 32 30 28 29 30 31 36 41 42 41 40 39 37 35 33 33 35 34 31 30 32 32 32 34 36 37 38 39 37 35 37 38 40 41 42 43 43 40 37 37 38 37 37 37 34 28 29 35 37 35 33 33 33 33 32 29 27 25 22 20 20 20
32 32 33 35 35 35 35 35 35 34 33 31 28 29 30 29 28 28 27 26 26 27 28 29 27 26 27 26 27 30 35 39 41 40 38 38 38 35 34 35 35 33 33 34 34 34 35 37 37 37 38 38 36 35 37 40 43 42 40 38 37 35 35 38 40 39 36 31 28 30 34 35 33 34 36 35 33 30 27 24 21 20 18 17 17
37 35 35 35 35 35 37 37 35 34 33 30 28 29 30 28 27 27 26 26 26 26 27 26 25 25 24 24 25 26 26 30 35 38 38 38 38 37 34 34 34 34 35 36 36 35 36 37 36 37 38 38 36 36 38 40 42 42 38 37 37 36 37 41 43 41 38 32 27 27 30 31 33 35 36 34 30 27 24 20 18 17 17 16 16
37 37 36 36 35 36 37 37 36 33 32 31 30 31 31 29 29 28 28 27 27 27 27 26 25 25 24 24 25 26 25 24 28 34 38 37 38 37 34 32 33 34 36 39 37 35 34 35 35 35 36 36 35 35 36 36 38 40 40 39 39 38 38 42 44 41 39 36 30 29 32 33 32 32 32 30 27 24 22 21 19 18 18 17 17
35 36 36 35 35 35 34 35 35 33 32 31 30 31 30 29 29 29 28 28 27 26 26 26 25 23 23 24 24 25 25 23 23 29 35 36 36 36 32 32 34 34 34 36 36 34 33 33 33 34 35 35 35 35 34 32 33 36 38 40 40 37 37 43 45 42 41 40 35 32 34 33 31 30 29 27 25 22 21 22 21 19 18 16 15
33 35 35 34 34 33 32 33 33 32 31 30 29 29 29 28 28 29 29 28 27 26 26 26 25 24 23 24 24 23 24 24 23 25 30 33 35 33 31 33 33 31 30 31 31 31 31 29 29 30 31 31 31 31 31 30 30 32 35 37 37 34 34 40 44 42 41 41 37 32 32 32 31 30 28 26 25 22 21 22 21 18 16 14 12
34 34 34 33 33 31 30 31 30 30 30 30 29 29 29 28 29 31 32 30 29 30 29 28 29 28 27 27 26 23 23 25 26 25 26 30 33 34 35 35 33 32 33 32 28 25 26 26 26 26 27 26 26 27 28 27 26 28 32 34 35 32 33 38 41 38 36 36 34 31 32 32 32 30 28 26 25 23 22 21 19 17 16 14 11
33 32 31 30 30 30 31 31 30 30 30 30 30 31 31 31 32 34 35 34 34 35 36 37 37 35 33 33 31 30 30 31 31 29 28 29 30 33 36 37 36 35 35 31 27 23 22 23 24 24 25 24 24 25 25 25 24 25 28 32 33 33 34 37 40 39 35 33 34 34 35 35 33 31 30 27 24 23 21 20 18 17 16 14 11
31 30 29 29 30 31 31 32 32 31 31 30 31 31 32 32 32 34 36 37 37 38 40 43 44 44 43 42 41 41 42 43 43 42 40 37 34 33 34 34 33 33 31 28 25 23 21 21 21 22 24 23 23 23 23 23 23 23 24 27 29 33 34 34 35 36 34 31 32 36 37 37 34 32 30 28 26 23 20 17 17 16 15 13 11
30 30 30 30 31 31 31 31 31 31 31 31 30 30 30 29 28 28 30 33 34 35 37 39 42 43 44 44 44 43 44 44 45 44 42 40 38 37 35 34 32 31 30 28 23 20 20 21 20 21 22 21 22 23 23 23 24 24 24 23 25 29 33 33 35 38 36 32 34 37 37 36 33 31 30 28 26 24 20 17 16 16 15 13 11
31 31 31 30 30 30 29 30 30 30 30 30 29 29 29 27 25 25 26 28 30 33 34 36 38 39 39 40 42 43 43 44 43 42 40 39 39 38 37 35 33 31 30 29 23 19 21 23 21 22 23 22 23 24 24 23 24 26 26 26 25 27 30 32 36 38 34 33 37 39 37 35 33 32 30 29 27 25 22 18 16 15 13 12 11
31 31 31 31 30 29 29 29 29 29 29 29 29 28 28 28 27 26 25 23 24 26 29 30 32 34 35 36 37 37 38 38 39 39 40 39 38 38 38 36 34 31 31 30 25 20 21 21 20 21 24 25 24 24 23 23 24 25 26 26 26 26 27 29 31 31 30 33 38 39 36 35 35 34 33 31 28 25 22 18 15 14 13 11 11
30 30 30 30 29 28 28 28 28 28 28 28 28 28 28 29 29 29 27 23 21 22 24 26 27 29 32 35 36 36 36 35 33 34 35 36 37 37 36 33 29 26 28 29 26 21 20 20 20 22 24 24 24 24 24 24 24 25 26 26 26 27 28 29 28 28 32 37 38 36 35 34 33 33 32 30 26 24 21 18 16 14 13 12 10
27 28 28 28 27 27 28 28 28 28 28 28 28 28 29 29 29 29 28 27 25 24 24 25 26 27 29 30 31 32 34 35 34 32 31 32 34 33 29 26 21 19 22 25 24 21 19 19 23 27 27 24 24 26 25 24 25 26 27 28 29 30 31 29 27 28 33 36 35 34 34 33 32 31 30 27 25 23 22 20 17 14 12 11 10
27 26 26 26 26 26 27 28 28 28 29 29 28 28 28 28 27 27 27 26 26 25 25 25 25 24 24 26 26 26 27 28 30 31 29 29 31 31 27 24 21 17 18 21 22 19 17 20 25 29 28 24 25 27 26 25 26 27 27 27 29 32 32 31 30 32 35 35 34 33 32 32 31 31 29 26 23 22 21 19 15 12 10 10 9
27 25 25 26 25 25 26 27 28 28 28 27 27 26 26 26 26 25 25 25 25 25 25 25 25 23 22 24 24 23 23 23 23 24 24 24 26 26 23 22 19 16 17 19 20 18 17 22 26 28 27 26 26 28 27 25 25 28 27 26 27 30 32 31 31 32 35 35 32 31 31 30 29 29 27 25 23 21 18 15 12 9 10 10 10
23 23 25 27 26 26 26 26 26 26 25 25 24 24 24 24 23 23 23 22 22 22 22 22 22 22 23 24 24 22 21 20 18 17 18 18 20 20 18 16 14 14 16 17 18 18 19 21 23 23 24 26 27 28 27 26 26 28 29 29 28 28 29 31 32 33 34 34 32 31 30 29 27 27 26 24 23 21 17 13 10 9 10 10 9
24 24 25 25 25 25 24 24 24 25 24 24 23 23 23 23 23 22 22 21 21 21 21 21 21 23 24 24 23 22 20 17 16 16 15 16 17 16 15 13 13 14 15 15 16 17 17 19 20 21 23 26 27 28 27 26 27 28 28 30 31 29 28 33 38 37 36 35 32 31 30 29 28 27 25 23 22 20 16 12 9 8 8 8 8
26 26 26 26 25 24 22 21 22 23 23 24 23 22 22 22 22 21 21 21 21 21 22 22 24 26 27 28 28 26 23 19 18 17 15 15 16 14 12 13 14 15 14 13 14 16 16 17 19 21 22 25 28 29 26 25 29 30 28 29 31 29 29 33 37 37 36 35 32 31 30 29 28 27 25 22 20 18 15 11 9 7 6 6 5
28 27 26 24 22 20 17 17 19 20 20 21 22 22 22 21 21 20 20 20 20 20 20 21 23 25 28 30 31 29 24 20 18 17 15 15 15 13 11 13 15 14 12 12 16 17 17 18 20 23 25 28 30 30 28 28 31 32 30 28 28 28 30 34 36 35 35 34 32 30 30 29 27 26 23 21 19 17 14 12 10 8 6 5 5
27 25 23 22 22 20 18 17 17 16 16 17 19 20 20 20 20 19 19 19 20 20 20 21 22 23 25 27 27 24 20 17 16 16 15 14 12 9 7 9 11 12 12 15 18 20 21 23 25 27 29 31 31 32 34 34 34 33 31 28 26 29 33 37 37 35 34 33 32 31 30 28 26 24 21 19 18 16 14 12 10 8 6 5 5
25 24 23 24 24 23 21 19 17 16 16 16 17 18 18 18 18 18 18 19 20 20 19 20 21 21 22 22 21 18 16 14 13 12 10 8 6 5 7 10 13 14 15 16 19 21 24 26 28 28 28 28 28 30 33 35 35 36 35 33 32 35 38 39 38 37 35 34 33 32 30 28 26 23 21 19 18 16 14 12 10 8 6 6 6
23 23 23 23 23 23 22 22 20 17 15 14 14 15 16 16 17 17 17 17 18 19 20 21 21 20 19 18 16 13 11 9 8 6 4 5 7 9 10 12 14 16 16 18 20 22 24 27 29 29 27 26 26 28 29 30 31 35 38 38 39 40 40 39 37 36 35 34 34 33 31 28 26 24 22 20 18 16 14 12 10 8 6 6 7
22 22 21 21 21 22 22 22 22 20 16 12 12 13 14 15 16 17 17 17 18 19 19 19 18 16 14 13 11 8 6 4 2 1 3 7 10 12 14 15 16 18 20 21 22 23 25 28 30 30 29 29 29 28 28 28 30 32 34 35 36 36 35 34 33 33 32 33 33 32 31 29 27 24 21 18 16 15 13 11 10 8 7 6 7
22 21 20 19 20 20 21 21 21 21 19 16 13 12 12 13 13 14 14 15 15 15 14 12 10 9 8 8 6 5 4 3 3 5 7 9 11 14 15 16 18 20 21 22 23 23 25 27 28 29 29 30 29 29 30 31 33 32 31 30 31 31 30 30 30 30 29 29 29 29 30 29 26 23 20 17 15 14 12 10 9 8 7 7 7
22 21 20 19 18 18 19 20 20 20 20 19 17 16 14 12 12 11 11 11 10 10 9 9 8 8 8 8 7 6 4 4 6 8 10 11 12 13 14 16 18 21 21 21 21 22 23 25 27 29 31 32 33 34 35 35 34 32 30 29 29 29 29 29 28 27 26 26 25 26 27 26 24 21 19 16 14 12 10 8 7 7 7 7 7
22 20 20 19 18 17 18 18 18 18 19 19 18 17 17 15 14 13 12 12 11 11 11 10 10 10 9 9 9 8 7 7 9 11 12 12 13 14 15 16 18 20 21 22 22 23 25 28 31 33 35 36 36 36 35 34 32 31 30 29 28 28 27 27 26 26 26 25 24 24 24 23 21 19 16 14 12 9 8 6 6 7 7 7 7
22 21 20 19 19 18 18 17 16 17 18 18 17 17 17 16 15 15 15 13 12 12 12 11 11 11 11 11 11 11 11 11 12 12 12 13 15 16 17 18 20 21 23 25 27 28 31 34 35 36 36 36 35 34 33 32 31 30 29 28 28 26 26 25 25 24 24 23 22 22 22 21 19 16 14 11 9 8 7 6 7 8 7 7 7
22 21 21 20 19 19 18 17 17 17 17 17 17 17 17 16 16 16 16 15 14 13 12 13 13 12 12 12 12 13 15 15 14 14 14 16 19 22 24 26 28 29 31 32 34 35 35 35 35 34 34 33 32 32 31 29 28 27 26 25 25 24 23 23 22 21 21 20 19 19 19 18 16 14 11 9 7 7 7 8 9 9 7 6 6
Wind_Direction
30 31 32 31 30 30 29 27 24 21 15 2 341 325 315 307 300 295 288 281 277 272 267 263 261 257 254 251 247 244 242 239 237 234 232 232 231 231 231 230 229 228 228 229 229 227 226 225 226 226 226 225 225 227 227 226 224 223 223 222 221 222 220 220 229 199 179 190 198 206 211 208 209 212 209 212 219 222 227 238 245 247 246 243 238
28 29 30 28 27 28 28 27 26 25 23 16 2 348 337 327 318 309 298 288 282 277 271 266 264 261 257 253 251 248 245 242 239 236 234 232 231 231 231 229 229 229 227 228 228 227 226 225 226 225 225 224 224 225 226 225 223 222 221 221 220 221 220 216 215 197 175 189 196 201 206 206 206 210 210 212 219 223 229 238 243 244 245 243 239
23 25 25 24 23 23 24 25 25 25 25 22 16 9 359 348 334 319 307 298 288 281 276 271 266 261 258 255 252 250 247 245 242 239 237 235 233 233 232 230 229 229 228 229 229 227 225 225 226 226 224 223 223 224 224 224 223 221 220 221 220 221 221 217 213 201 174 186 196 197 201 203 204 208 212 214 219 225 231 238 241 242 243 241 239
20 19 17 16 17 17 18 20 21 22 23 21 19 17 14 8 356 337 318 306 297 289 285 280 273 264 258 256 253 252 250 248 245 243 241 239 237 237 236 234 232 231 230 230 229 228 226 225 226 225 223 222 223 223 223 222 222 221 220 220 220 220 221 218 215 209 186 184 195 199 201 202 203 207 211 214 220 227 231 235 238 240 241 240 240
15 15 11 10 11 13 13 14 16 16 16 15 15 16 16 14 10 1 343 322 308 299 291 285 280 270 262 259 257 254 252 250 248 246 245 243 242 240 239 238 237 235 234 232 231 230 229 228 227 225 221 221 222 222 221 221 220 220 219 220 219 219 220 219 216 213 200 187 191 196 197 199 201 206 211 212 216 225 230 233 235 236 236 238 242
9 9 8 7 7 8 8 9 9 9 8 8 8 9 10 10 11 10 3 349 330 313 300 290 285 278 270 266 263 258 255 252 249 248 246 245 244 243 242 242 241 239 238 236 235 233 233 233 232 227 222 222 222 222 221 220 219 219 218 218 218 216 216 216 214 213 209 196 189 190 190 191 193 200 210 212 206 207 217 224 229 232 233 236 241
0 2 2 1 0 1 2 3 2 2 2 2 1 2 3 3 4 6 5 1 352 334 314 300 292 286 278 272 267 262 259 256 252 250 248 246 245 244 242 242 243 243 242 240 238 237 236 236 234 230 226 226 225 223 221 219 218 218 217 216 214 213 212 212 212 210 207 197 187 189 191 193 192 194 207 211 207 204 202 201 209 218 224 227 226
349 351 352 351 350 352 354 355 355 355 355 357 357 357 358 357 357 358 358 359 356 349 335 315 300 290 282 277 272 266 262 258 254 251 249 247 246 244 243 243 243 244 244 243 241 240 239 238 236 233 230 230 229 227 223 220 217 216 216 214 212 211 210 208 207 207 204 198 191 188 187 191 193 189 192 198 203 210 208 201 196 194 200 214 222
339 337 339 339 339 341 345 347 349 350 350 350 350 351 351 352 352 351 351 351 351 351 348 339 323 303 288 281 277 271 264 259 256 253 250 248 246 245 244 244 243 243 243 244 242 241 240 239 238 236 234 232 232 231 228 225 221 217 215 213 210 209 209 206 204 203 200 195 192 188 184 189 193 187 187 194 198 202 203 203 203 194 193 211 227
333 330 331 332 332 333 335 336 339 342 343 343 342 343 344 345 345 345 345 345 344 345 345 344 339 325 304 287 281 277 270 264 260 256 254 251 247 246 245 244 242 241 242 242 242 241 240 239 239 238 236 234 233 232 230 229 227 224 222 217 213 209 206 203 203 202 200 198 196 191 187 194 197 193 194 199 198 193 188 192 198 196 197 213 228
328 324 324 326 327 326 325 325 328 331 333 335 335 336 336 336 336 337 337 337 338 338 337 338 337 332 320 304 291 280 275 273 269 263 259 254 250 247 246 243 241 239 240 240 240 241 240 240 240 239 237 235 233 232 231 230 229 227 226 223 220 216 210 205 203 202 201 204 204 201 197 198 199 198 196 194 193 191 187 186 187 186 190 205 215
322 320 320 321 322 320 316 316 319 320 323 326 327 329 329 329 329 328 328 330 330 330 330 329 328 326 322 316 306 291 282 282 277 269 264 259 254 250 247 244 241 240 240 240 240 241 240 240 239 238 236 235 233 230 229 230 229 228 226 225 224 222 219 215 212 208 205 205 206 206 207 204 201 201 199 195 191 189 186 184 184 182 185 198 205
314 315 316 317 318 315 311 311 312 313 315 318 321 323 322 322 322 322 323 325 325 324 324 322 321 319 316 312 308 300 293 292 286 275 269 265 260 254 249 247 245 242 241 241 240 240 240 239 238 237 237 235 231 229 227 227 228 227 226 225 224 223 222 221 221 218 215 211 209 209 211 209 206 206 206 202 193 183 178 181 182 181 184 195 206
304 306 307 310 311 311 310 310 310 310 311 313 316 317 316 315 315 314 315 317 318 318 318 318 317 315 311 307 304 301 299 300 296 285 276 270 264 257 251 249 247 246 244 242 241 240 239 238 236 235 235 233 228 226 225 224 224 223 223 224 225 224 222 221 221 220 218 216 214 215 216 214 211 210 209 205 198 190 185 183 180 180 186 196 207
295 297 299 301 303 305 306 306 306 307 308 310 311 309 308 307 307 307 305 304 307 308 308 310 311 311 309 306 302 299 299 301 301 294 282 273 265 258 252 249 248 247 246 244 243 242 240 238 236 234 234 232 227 224 222 221 220 219 220 222 223 223 222 222 222 220 219 219 219 220 219 218 215 213 209 204 201 198 193 186 182 180 181 192 208
286 288 291 293 296 298 299 299 300 302 304 306 306 305 303 302 301 301 299 297 297 296 297 300 302 302 304 303 299 295 295 297 297 294 287 275 263 255 250 248 247 247 247 245 243 242 241 239 237 235 234 233 229 224 222 220 218 216 217 218 219 221 222 223 223 222 222 222 221 221 221 221 217 213 209 203 198 195 187 179 180 178 176 189 211
280 281 281 282 284 286 287 289 291 294 297 300 302 302 302 300 299 299 298 296 294 294 296 297 297 298 299 297 294 291 291 293 291 289 287 278 263 255 251 249 247 246 247 247 245 243 241 239 237 236 234 233 230 224 221 220 216 214 215 215 215 218 220 221 221 222 223 222 220 219 220 219 215 211 208 203 199 192 180 173 177 178 177 191 214
282 281 279 279 279 276 277 280 283 286 289 291 294 297 298 297 297 297 295 292 290 291 293 293 294 297 297 295 293 290 290 292 290 285 284 279 264 254 251 251 251 248 247 247 246 244 244 241 238 235 235 233 229 224 220 218 215 213 213 212 212 214 216 215 213 214 217 218 217 216 216 215 212 208 204 201 199 194 188 183 181 179 183 199 210
283 283 283 284 280 275 277 279 280 280 283 285 287 290 291 291 292 293 292 290 288 289 288 286 289 293 292 292 292 290 289 291 290 284 281 277 265 253 250 250 253 253 250 247 246 245 244 242 239 236 235 233 230 225 219 215 214 214 212 209 211 213 211 207 204 202 200 202 206 207 206 205 204 202 197 194 194 197 198 196 189 185 190 202 204
289 289 289 287 282 280 281 280 279 278 280 282 283 284 284 284 285 287 289 288 286 285 284 283 285 286 287 288 288 286 285 287 288 284 279 276 268 254 246 246 250 253 254 250 246 243 241 240 239 236 233 232 230 224 215 212 214 214 211 209 213 213 207 202 203 201 196 195 198 198 196 196 196 194 190 188 191 196 197 197 197 197 198 200 200
299 297 294 290 286 284 284 282 280 280 280 281 282 281 280 279 281 284 286 286 285 284 283 282 280 279 281 283 283 283 282 283 285 285 280 276 270 258 246 244 246 250 254 253 247 242 238 236 236 234 230 227 225 220 213 211 213 214 212 213 216 214 207 203 203 201 198 195 193 192 191 189 188 186 184 186 190 190 188 191 199 203 206 209 210
304 301 297 294 290 287 285 283 282 282 282 282 282 280 280 280 281 283 283 282 283 283 283 281 276 272 275 277 278 280 281 282 283 283 281 276 271 261 250 248 247 246 249 251 248 243 239 236 235 233 227 221 217 215 212 211 211 213 215 216 216 212 208 204 200 196 195 191 186 185 185 183 183 184 183 183 186 187 187 191 198 204 213 222 223
307 304 300 296 292 289 287 286 285 284 283 283 282 281 282 282 282 282 281 279 279 279 279 278 275 271 271 270 270 273 278 281 280 279 279 277 272 264 255 252 249 244 243 247 247 244 241 237 235 232 227 220 214 212 212 212 212 214 216 215 213 209 205 202 197 193 191 189 184 183 182 181 181 181 182 184 187 190 192 195 202 209 218 225 226
311 307 303 299 295 292 291 289 287 285 285 285 282 280 280 280 281 280 277 275 275 274 274 273 271 269 268 267 266 266 270 275 277 277 277 275 272 267 258 253 250 245 243 246 246 245 243 238 234 232 227 221 216 213 214 214 214 214 213 210 207 204 200 197 194 191 189 188 185 182 180 181 181 181 184 187 189 191 193 197 204 211 215 218 220
306 303 301 298 295 294 293 291 289 287 287 286 282 280 280 279 278 277 274 272 271 269 269 269 267 266 265 264 265 264 262 265 272 275 276 273 271 266 258 252 250 247 245 245 244 243 242 240 237 234 228 221 217 217 217 216 215 214 212 206 201 199 197 194 191 189 187 187 183 179 179 181 183 185 187 187 186 187 190 192 196 200 202 205 211
301 298 297 295 293 293 292 290 288 286 285 282 278 276 276 274 274 274 272 268 266 265 265 266 264 264 263 261 262 265 262 258 263 271 272 270 267 263 255 248 247 247 246 247 245 242 240 239 236 231 226 220 216 216 217 217 216 216 213 206 199 197 196 191 188 188 187 185 181 181 184 185 185 186 186 184 183 185 186 185 185 189 196 203 213
300 297 296 295 295 294 291 288 288 286 283 279 275 272 270 268 268 268 267 265 265 264 264 264 262 261 261 262 262 263 263 259 257 261 264 262 260 258 254 248 247 246 246 247 247 241 236 232 228 224 221 217 214 215 215 214 213 214 213 206 200 198 196 192 190 190 189 187 185 185 186 184 181 181 181 180 179 180 184 185 183 186 195 202 212
298 296 296 296 296 295 292 289 288 287 284 279 276 273 270 268 266 264 262 262 263 265 265 265 265 264 264 267 268 268 267 262 255 254 258 258 255 253 252 249 245 242 240 242 244 239 230 223 217 214 213 212 211 212 214 212 211 213 210 203 198 196 193 191 191 191 189 188 185 180 178 178 177 176 176 176 174 174 180 185 183 183 188 191 201
298 296 296 296 295 295 293 291 289 288 286 284 280 275 271 269 269 268 266 262 261 263 266 266 266 266 267 267 267 267 266 263 260 260 264 264 257 252 251 249 245 242 241 240 239 233 221 210 204 202 202 203 205 206 208 208 208 208 203 197 193 190 185 184 186 186 183 181 178 173 172 174 175 175 174 173 173 175 179 182 181 179 180 185 199
297 296 295 294 294 294 293 291 290 288 286 286 284 280 276 271 268 268 268 266 263 263 264 264 264 266 268 267 265 265 265 267 269 270 270 270 264 256 253 251 247 247 246 241 234 226 210 200 198 196 195 198 202 204 203 201 202 200 194 190 188 184 180 182 184 182 179 177 176 175 173 172 172 172 172 170 169 172 176 178 177 176 177 182 194
295 295 294 293 292 292 291 289 289 287 285 284 283 282 282 278 271 267 267 268 268 267 264 264 263 263 264 264 264 264 265 266 268 269 268 268 264 258 254 250 244 241 239 234 229 221 205 197 197 195 192 194 198 200 198 194 193 191 186 185 184 179 176 180 182 180 177 175 176 176 175 172 171 170 170 169 166 166 169 172 173 176 180 183 187
294 294 294 293 291 291 289 287 287 286 284 283 281 281 282 282 279 274 270 269 270 270 268 267 266 264 263 263 263 264 264 263 264 265 264 264 261 256 254 251 247 242 235 228 226 217 202 199 198 193 190 192 196 198 197 191 188 184 179 178 180 178 176 177 178 179 178 175 173 174 173 172 170 169 169 168 165 163 166 170 172 175 178 181 185
294 294 294 293 292 291 289 288 287 285 284 283 281 280 280 281 283 283 280 276 275 275 273 271 270 268 266 264 263 262 262 263 263 263 262 260 257 254 252 250 248 245 236 226 224 217 205 203 200 191 190 193 195 197 197 193 186 181 178 177 178 179 178 176 176 178 179 176 174 173 171 171 170 169 169 169 168 167 168 169 171 172 174 178 182
294 292 291 291 291 291 290 289 287 285 283 282 281 280 279 279 281 284 286 286 283 280 278 276 274 274 275 275 273 269 265 263 264 263 261 259 255 251 248 245 244 243 237 228 224 218 207 202 197 190 192 197 196 193 192 189 184 179 177 176 175 174 173 172 173 174 174 173 173 172 171 172 171 169 169 169 169 168 168 166 167 170 173 177 179
293 291 290 289 289 289 288 287 286 285 284 283 282 281 281 281 282 283 284 285 283 281 280 278 277 278 280 282 283 279 273 270 269 267 263 258 254 250 245 238 234 234 233 230 225 217 205 197 192 191 195 198 195 190 186 183 181 179 175 170 167 166 166 168 171 173 172 172 171 170 170 170 170 169 168 167 166 167 167 167 169 172 174 174 175
292 290 289 288 287 285 285 285 284 283 283 282 282 281 280 279 279 279 279 279 278 279 279 278 278 278 279 281 282 279 275 272 270 270 265 258 255 253 243 227 217 218 224 229 227 216 202 193 192 196 199 196 190 188 184 179 177 178 175 171 167 166 166 167 167 169 171 171 170 170 170 169 169 169 168 168 169 171 172 172 172 171 170 171 173
291 288 287 285 283 282 282 281 280 280 280 280 280 279 279 278 278 278 280 280 280 281 283 283 285 284 283 283 282 281 279 274 269 269 266 260 261 260 243 218 208 209 217 225 228 218 202 193 194 198 199 192 185 183 180 175 173 174 174 173 170 167 167 167 166 166 168 168 168 169 169 169 170 171 169 168 170 172 174 174 170 166 170 173 173
288 284 282 281 281 281 281 281 281 280 279 279 279 278 278 278 278 278 279 279 280 281 281 283 286 286 283 282 281 283 284 281 275 271 267 262 264 260 236 208 199 204 211 220 225 219 205 196 196 197 196 189 181 178 175 170 170 171 170 170 170 168 167 165 163 163 165 165 165 167 168 168 170 171 170 169 169 171 172 172 167 165 172 176 177
289 286 284 283 283 283 283 282 282 281 278 277 278 278 278 278 278 277 277 277 278 280 280 279 279 277 278 280 283 284 283 279 275 272 268 265 266 255 225 196 187 197 208 216 222 219 209 201 196 193 190 183 175 171 170 169 169 168 167 165 165 164 163 162 160 160 163 164 165 168 169 169 170 172 173 172 171 171 170 171 172 173 174 175 178
298 294 290 287 285 284 283 280 278 277 276 275 275 275 276 277 278 279 281 282 283 285 285 284 282 280 279 280 280 279 279 276 275 274 272 274 274 254 219 188 182 197 210 217 215 209 201 192 186 182 180 174 169 166 167 168 168 167 165 165 164 163 162 165 165 164 165 166 166 168 171 172 172 173 173 172 172 172 171 171 176 179 177 175 176
301 296 292 289 286 283 281 276 271 269 269 270 270 270 271 272 274 276 278 280 281 282 282 282 282 282 284 285 283 280 278 277 277 275 271 275 278 259 215 187 189 203 211 208 198 189 180 174 172 169 164 162 164 164 163 165 168 169 167 166 164 162 161 165 166 166 166 167 168 169 172 174 174 172 170 170 171 173 173 172 174 179 182 182 185
299 295 292 289 285 281 277 273 270 266 263 262 263 264 265 267 269 272 274 276 278 280 280 280 279 278 278 281 284 284 281 277 276 274 269 270 274 263 226 198 195 197 188 173 169 166 161 157 157 157 157 160 165 167 167 169 171 170 167 165 164 163 163 165 165 165 166 167 170 172 174 175 174 172 169 169 170 171 172 174 177 184 190 193 201
300 299 299 298 296 291 283 277 275 270 263 259 260 261 264 266 267 269 272 274 276 277 278 280 280 278 277 280 286 290 287 281 279 277 269 265 265 258 219 185 176 167 156 155 158 158 157 157 158 160 165 170 172 174 177 177 173 168 165 164 163 163 163 164 164 165 167 169 171 174 174 173 172 170 168 169 171 172 174 179 184 191 198 203 210
308 308 309 309 306 302 297 292 285 277 268 264 263 262 263 266 267 269 271 272 274 275 276 276 278 279 281 286 292 293 288 285 289 286 270 247 228 194 160 154 157 157 157 161 162 159 158 161 162 164 169 173 173 175 180 181 176 172 172 170 165 162 164 165 166 168 170 171 171 172 172 171 169 169 170 173 174 174 177 183 186 189 197 206 215
313 313 314 315 315 314 313 312 307 298 285 273 268 267 266 264 265 267 269 270 272 274 273 273 275 280 286 293 298 298 293 292 297 288 236 179 161 151 144 145 151 155 157 159 160 158 159 163 166 167 169 169 168 170 175 176 176 178 179 176 170 167 168 169 170 170 172 172 172 172 172 171 171 171 173 174 175 176 179 184 187 190 201 213 222
315 316 318 321 323 324 324 324 324 322 314 295 279 275 273 268 267 267 267 268 270 272 273 275 280 288 297 303 304 306 308 309 304 186 141 137 138 139 140 141 144 147 149 153 157 161 166 170 171 169 166 164 163 166 168 168 169 172 174 172 169 168 168 168 168 170 172 174 175 174 174 173 173 174 175 175 176 177 181 185 192 200 209 219 228
320 320 321 325 330 331 331 331 333 335 335 329 316 306 298 289 286 284 282 282 283 285 290 298 307 316 325 331 330 338 359 34 78 98 107 116 124 131 137 141 143 145 147 151 157 163 166 168 166 163 159 158 158 158 158 158 159 161 163 164 164 164 164 165 167 170 172 176 177 176 175 175 173 173 175 177 177 180 185 192 202 215 225 232 238
328 326 325 328 333 336 338 341 341 341 343 344 342 340 339 334 331 329 326 324 327 331 336 344 350 353 356 360 2 9 30 68 91 98 102 108 114 121 128 133 138 141 143 144 148 154 157 157 157 154 152 150 150 149 149 151 153 155 157 158 159 160 161 163 166 168 170 173 176 176 176 175 173 173 177 179 179 184 191 196 207 226 235 237 244
335 334 332 333 336 338 341 345 346 345 346 347 348 348 350 350 350 351 349 349 353 356 357 359 1 3 5 12 18 24 39 64 81 88 93 99 107 114 121 127 133 137 136 135 139 145 148 148 147 146 145 144 144 144 146 147 148 150 152 154 155 157 159 161 163 166 167 169 173 174 175 175 174 175 178 179 182 189 199 208 226 239 238 238 247
341 340 338 338 339 339 341 344 347 349 351 353 352 352 352 352 353 355 355 355 358 2 3 6 8 10 12 18 28 39 52 65 73 79 86 96 105 111 118 124 129 130 129 129 132 136 138 139 139 139 139 139 139 140 141 144 146 148 151 152 154 156 158 160 162 165 167 169 171 173 173 174 176 178 180 183 189 201 212 224 237 242 239 238 247
345 344 344 343 343 344 346 349 351 351 354 356 356 355 355 356 356 357 357 358 1 4 6 9 15 20 20 21 30 48 62 66 67 72 85 101 110 113 115 118 119 120 121 123 125 127 129 132 133 134 134 135 136 138 141 143 146 148 150 151 153 155 158 159 162 164 167 170 172 173 173 176 179 181 184 189 201 217 228 234 238 241 241 243 249